Date String (YYYY-MM-DD hh:mm:ss) UTC,Instrument flags,absolute air pressure of the measurement (hPa),sample flow rate (lpm),inlet stack bypass flow (lpm),air temperature of the measurement (°C),ambient temperature measured by the external sensor (°C),aerosol sample conditioner tube jacket temperature (°C),OPC LED temperature (°C),internal box temperature (°C),relative humidity of the measurement (%),span deviation,mass concentration of particles derived from Lorenz-Mie calculation of OPC scattering (μg/m³),mass concentration of particles derived from Lorenz-Mie calculation of OPC scattering (μg/m³),mass concentration of particles derived from Lorenz-Mie calculation of OPC scattering (μg/m³)
DateTimeUTC,F1_M11,P_M11,Q1_M11,Q2_M11,T1_M11,T2_M11,T3_M11,T4_M11,T5_M11,U1_M11,ZSPAN_M11,X0_M11,X2_M11,X1_M11
2024-06-08 03:00:00,SystemResetWarning,0827.1,5.00,000.00,029.1,027.8,000.0,037.4,030.7,022.8,0000.0,0011.31,0003.20,0002.23
2024-06-08 03:01:00,SystemResetWarning,0827.0,5.01,000.00,029.1,028.1,000.0,037.4,030.9,022.5,0000.0,0011.07,0003.19,0002.25
2024-06-08 03:02:00,SystemResetWarning,0827.1,5.00,000.00,029.2,028.3,000.0,037.4,031.0,021.7,0000.0,0010.40,0003.18,0002.25
2024-06-08 03:03:00,SystemResetWarning,0827.1,5.00,000.00,029.3,028.5,000.0,037.4,031.1,020.9,0000.0,0009.95,0003.18,0002.26
2024-06-08 03:04:00,SystemResetWarning,0827.1,5.00,000.00,029.4,028.7,000.0,037.5,031.2,021.0,0000.0,0009.22,0003.14,0002.25
2024-06-08 03:05:00,SystemResetWarning,0827.1,5.00,000.00,029.4,028.9,000.0,037.5,031.3,021.0,0000.0,0008.32,0003.13,0002.25
2024-06-08 03:06:00,SystemResetWarning,0827.1,5.00,000.00,029.5,029.0,000.0,037.5,031.3,020.6,0000.0,0008.28,0003.13,0002.26
2024-06-08 03:07:00,SystemResetWarning,0827.1,5.00,000.00,029.6,029.1,000.0,037.6,031.4,020.0,0000.0,0007.90,0003.06,0002.23
2024-06-08 03:08:00,SystemResetWarning,0827.2,5.00,000.00,029.6,029.2,000.0,037.6,031.5,020.2,0000.0,0007.59,0003.02,0002.20
2024-06-08 03:09:00,SystemResetWarning,0827.2,4.99,000.00,029.6,027.9,000.0,037.7,030.8,020.4,0000.0,0007.59,0003.01,0002.19
2024-06-08 03:10:00,SystemResetWarning,0827.2,5.02,000.00,029.2,026.3,000.0,037.7,030.1,020.9,0000.0,0007.41,0002.99,0002.19
2024-06-08 03:11:00,SystemResetWarning,0827.3,5.01,000.00,029.1,026.5,000.0,037.7,030.1,021.1,0000.0,0005.29,0002.96,0002.17
2024-06-08 03:12:00,SystemResetWarning,0827.2,4.99,000.00,029.0,026.9,000.0,037.6,030.3,020.4,0000.0,0005.37,0002.96,0002.15
2024-06-08 03:13:00,SystemResetWarning,0827.4,5.00,000.00,029.1,027.3,000.0,037.5,030.5,020.7,0000.0,0005.26,0002.85,0002.13
2024-06-08 03:14:00,SystemResetWarning,0827.4,5.01,000.00,029.1,027.7,000.0,037.5,030.7,020.8,0000.0,0005.08,0002.80,0002.11
2024-06-08 03:15:00,SystemResetWarning,0827.3,4.99,000.00,029.2,028.0,000.0,037.5,030.8,020.7,0000.0,0005.74,0002.82,0002.10
2024-06-08 03:16:00,SystemResetWarning,0827.2,5.00,000.00,029.2,028.2,000.0,037.5,031.0,020.6,0000.0,0006.66,0002.83,0002.09
2024-06-08 03:17:00,SystemResetWarning,0827.3,5.00,000.00,029.3,028.5,000.0,037.5,031.1,020.6,0000.0,0007.36,0002.85,0002.10
2024-06-08 03:18:00,SystemResetWarning,0827.3,5.00,000.00,029.4,028.7,000.0,037.5,031.2,020.6,0000.0,0007.97,0002.92,0002.12
2024-06-08 03:19:00,SystemResetWarning,0827.4,5.00,000.00,029.4,028.8,000.0,037.5,031.3,020.3,0000.0,0008.37,0002.97,0002.13
2024-06-08 03:20:00,SystemResetWarning,0827.4,5.00,000.00,029.5,029.0,000.0,037.6,031.3,020.0,0000.0,0008.17,0002.90,0002.13
2024-06-08 03:21:00,SystemResetWarning,0827.4,5.00,000.00,029.6,029.1,000.0,037.6,031.4,020.2,0000.0,0008.22,0002.89,0002.12
2024-06-08 03:22:00,SystemResetWarning,0827.4,5.00,000.00,029.7,029.2,000.0,037.6,031.5,020.2,0000.0,0008.74,0002.93,0002.13
2024-06-08 03:23:00,SystemResetWarning,0827.4,4.99,000.00,029.7,028.9,000.0,037.7,031.3,020.2,0000.0,0008.63,0002.90,0002.13
2024-06-08 03:24:00,SystemResetWarning,0827.3,5.00,000.00,029.4,026.8,000.0,037.8,030.2,020.7,0000.0,0009.03,0002.91,0002.15
2024-06-08 03:25:00,SystemResetWarning,0827.4,5.02,000.00,029.1,026.5,000.0,037.8,030.1,021.0,0000.0,0009.36,0002.98,0002.17
2024-06-08 03:26:00,SystemResetWarning,0827.4,5.00,000.00,029.1,026.8,000.0,037.7,030.2,020.4,0000.0,0010.00,0003.04,0002.17
2024-06-08 03:27:00,SystemResetWarning,0827.4,4.99,000.00,029.1,027.2,000.0,037.6,030.5,020.3,0000.0,0010.22,0003.08,0002.17
2024-06-08 03:28:00,SystemResetWarning,0827.4,5.00,000.00,029.1,027.6,000.0,037.6,030.7,020.4,0000.0,0010.72,0003.06,0002.17
2024-06-08 03:29:00,SystemResetWarning,0827.4,5.01,000.00,029.2,027.9,000.0,037.5,030.8,020.2,0000.0,0010.31,0003.07,0002.15
2024-06-08 03:30:00,SystemResetWarning,0827.4,5.00,000.00,029.2,028.2,000.0,037.5,031.0,020.0,0000.0,0010.44,0003.03,0002.13
2024-06-08 03:31:00,SystemResetWarning,0827.5,5.00,000.00,029.3,028.4,000.0,037.5,031.1,019.8,0000.0,0010.50,0003.07,0002.12
2024-06-08 03:32:00,SystemResetWarning,0827.4,5.00,000.00,029.4,028.6,000.0,037.6,031.2,019.6,0000.0,0010.52,0003.10,0002.12
2024-06-08 03:33:00,SystemResetWarning,0827.5,5.00,000.00,029.4,028.8,000.0,037.6,031.3,019.5,0000.0,0009.93,0003.08,0002.11
2024-06-08 03:34:00,SystemResetWarning,0827.6,5.00,000.00,029.5,028.9,000.0,037.6,031.3,019.5,0000.0,0009.96,0003.08,0002.10
2024-06-08 03:35:00,SystemResetWarning,0827.5,5.00,000.00,029.6,029.0,000.0,037.6,031.4,019.5,0000.0,0009.51,0003.07,0002.08
2024-06-08 03:36:00,SystemResetWarning,0827.5,5.00,000.00,029.7,029.2,000.0,037.7,031.5,019.6,0000.0,0009.82,0003.02,0002.06
2024-06-08 03:37:00,SystemResetWarning,0827.5,4.99,000.00,029.7,029.3,000.0,037.7,031.6,019.5,0000.0,0010.39,0002.96,0002.05
2024-06-08 03:38:00,SystemResetWarning,0827.5,5.00,000.00,029.8,029.3,000.0,037.8,031.6,019.6,0000.0,0009.65,0002.88,0002.03
2024-06-08 03:39:00,SystemResetWarning,0827.5,5.00,000.00,029.6,027.7,000.0,037.8,030.8,019.7,0000.0,0008.56,0002.81,0001.99
2024-06-08 03:40:00,SystemResetWarning,0827.5,5.02,000.00,029.3,026.3,000.0,037.9,030.1,020.2,0000.0,0008.48,0002.77,0001.98
2024-06-08 03:41:00,SystemResetWarning,0827.5,5.00,000.00,029.1,026.7,000.0,037.8,030.2,020.4,0000.0,0007.89,0002.73,0001.96
2024-06-08 03:42:00,SystemResetWarning,0827.6,4.99,000.00,029.1,027.0,000.0,037.7,030.4,020.4,0000.0,0007.90,0002.72,0001.94
2024-06-08 03:43:00,SystemResetWarning,0827.7,5.00,000.00,029.2,027.4,000.0,037.7,030.7,020.4,0000.0,0008.07,0002.67,0001.92
2024-06-08 03:44:00,SystemResetWarning,0827.6,5.01,000.00,029.2,027.8,000.0,037.6,030.8,020.4,0000.0,0008.39,0002.65,0001.90
2024-06-08 03:45:00,SystemResetWarning,0827.7,5.00,000.00,029.3,028.1,000.0,037.6,030.9,020.3,0000.0,0008.50,0002.66,0001.88
2024-06-08 03:46:00,SystemResetWarning,0827.7,5.00,000.00,029.3,028.3,000.0,037.6,031.0,020.3,0000.0,0008.52,0002.65,0001.85
2024-06-08 03:47:00,SystemResetWarning,0827.7,5.00,000.00,029.4,028.5,000.0,037.6,031.1,020.4,0000.0,0008.31,0002.66,0001.84
2024-06-08 03:48:00,SystemResetWarning,0827.7,5.00,000.00,029.4,028.7,000.0,037.6,031.2,020.3,0000.0,0006.71,0002.66,0001.82
2024-06-08 03:49:00,SystemResetWarning,0827.7,4.99,000.00,029.5,028.9,000.0,037.6,031.3,020.3,0000.0,0006.86,0002.74,0001.82
2024-06-08 03:50:00,SystemResetWarning,0827.7,4.99,000.00,029.6,029.0,000.0,037.7,031.4,020.3,0000.0,0007.18,0002.76,0001.82
2024-06-08 03:51:00,SystemResetWarning,0827.7,5.01,000.00,029.6,029.1,000.0,037.7,031.4,020.1,0000.0,0007.49,0002.74,0001.81
2024-06-08 03:52:00,SystemResetWarning,0827.8,5.02,000.00,029.7,029.2,000.0,037.7,031.5,020.2,0000.0,0007.53,0002.77,0001.81
2024-06-08 03:53:00,SystemResetWarning,0827.8,4.99,000.00,029.8,029.3,000.0,037.8,031.6,020.2,0000.0,0007.74,0002.78,0001.81
2024-06-08 03:54:00,SystemResetWarning,0827.8,4.99,000.00,029.8,029.4,000.0,037.8,031.6,020.1,0000.0,0007.86,0002.79,0001.82
2024-06-08 03:55:00,SystemResetWarning,0827.8,4.99,000.00,029.8,029.0,000.0,037.9,031.3,020.1,0000.0,0007.48,0002.79,0001.82
2024-06-08 03:56:00,SystemResetWarning,0827.7,5.01,000.00,029.5,026.8,000.0,037.9,030.4,020.5,0000.0,0007.36,0002.77,0001.83
2024-06-08 03:57:00,SystemResetWarning,0827.7,5.01,000.00,029.3,026.5,000.0,037.9,030.2,020.9,0000.0,0007.37,0002.75,0001.84
2024-06-08 03:58:00,SystemResetWarning,0827.8,4.98,000.00,029.2,026.9,000.0,037.8,030.3,021.0,0000.0,0007.00,0002.75,0001.85
2024-06-08 03:59:00,SystemResetWarning,0827.8,5.00,000.00,029.2,027.2,000.0,037.7,030.5,020.9,0000.0,0006.63,0002.71,0001.86
